[[{"header":{"parameterUnit":"m.s-1","parameterCategory":1,"la1":30.2991,"la2":30.254,"lo1":-89.0895,"lo2":-89.0444,"dy":0.0017,"dx":0.0017,"nx":28,"ny":28,"refTime":"2023-10-20T21:00:00:Z","depth":0,"parameterNumber":2,"parameterNumberName":"U-component_of_WINDS"},"data":[0,0,0,0,0,0,0,0,0,0,0,0,0,0,0,0,0,0,0,0,0,0,0,0,0,0,0,0,0,0,0,0,0,0,0,0,0,0,0,0,0,0,0,0,0,0,0,0,0,0,0,0,0,0,0,0,0,0,0.0212,0.0211,0,0.0177,0.0176,0.0176,0.0099,0.0097,0.0096,0.0094,0.0062,0.0063,0.0063,0,0,0,0,0,0,0,0,0,0,0,0,0,0.0217,0.0217,0.0212,0.0211,0.0211,0.0177,0.0176,0.0176,0.0099,0.0097,0.0095,0.0094,0.0062,0.0063,0.0064,0,0,0,0,0,0,0,0,0,0,0,0,0,0.0202,0.0217,0.0212,0.0168,0.0164,0.0177,0.0176,0.0176,0.01,0.0097,0.0095,0.0093,0.0062,0.0063,0.0064,0.0117,0,0,0.0067,0.0067,0,0,0,0,0,0,0,0,0.0203,0.0201,0.0175,0.0171,0.0167,0.014,0.0166,0.0156,0.01,0.0124,0.0094,0.0091,0.009,0.0089,0.0087,0.0116,0.0114,0.0067,0.0067,0.0068,0.0068,0,0,0,0,0,0,0,0.0204,0.0203,0.0198,0.0175,0.017,0.0152,0.0147,0.0164,0.0121,0.0122,0.0116,0.0113,0.0087,0.0087,0.0086,0.0114,0.0067,0.0067,0.0068,0.0068,0.0187,0.0189,0,0,0,0,0,0,0.021,0.0204,0.0199,0.0197,0.0179,0.0154,0.0149,0.0151,0.0121,0.0114,0.0115,0.011,0.0086,0.0085,0.0085,0.0147,0.0068,0.0068,0.0069,0.0184,0.0188,0.019,0,0,0,0,0,0,0.0211,0.0211,0.02,0.0199,0.0196,0.0156,0.016,0.0151,0.0151,0.0115,0.0108,0.0122,0.0084,0.0083,0.011,0.0145,0.0069,0.007,0.0181,0.0185,0.0189,0.0272,0,0,0,0,0,0,0.0211,0.0211,0.023,0.02,0.0197,0.0225,0.0162,0.0152,0.0152,0.0144,0.012,0.0114,0.0082,0.0109,0.0111,0.0145,0.007,0.0178,0.0183,0.0188,0.0266,0.0279,0.0289,0,0,0,0,0,0.0212,0.0255,0.0231,0.0231,0.0219,0.0227,0.0226,0.0188,0.0155,0.0175,0.0152,0.0114,0.0141,0.0112,0.0114,0.0149,0.0176,0.0182,0.0187,0.0261,0.0276,0.0289,0,0,0,0,0,0,0.0291,0.025,0.0223,0.0258,0.0247,0.0214,0.0237,0.0204,0.0203,0.0196,0.0151,0.0146,0.0179,0.0166,0.0136,0.0201,0.0152,0.0159,0.0208,0.0222,0.0233,0.0237,0.0071,0,0,0,0,0,0.0312,0.0321,0.0285,0.032,0.0315,0.0278,0.028,0.0252,0.0239,0.0234,0.0213,0.0203,0.021,0.0215,0.0218,0.0264,0.0259,0.0289,0.03,0.031,0.0316,0.0342,0.0356,0.021,0.0209,0.0209,0,0,0.0357,0.0336,0.0344,0.0335,0.0323,0.0335,0.0274,0.0289,0.0298,0.0236,0.0261,0.0246,0.0231,0.0269,0.0284,0.0259,0.0356,0.0317,0.0325,0.0326,0.035,0.0364,0.0376,0.0213,0.0213,0.0212,0,0,0.0445,0.0429,0.0456,0.0446,0.0428,0.0403,0.041,0.0383,0.037,0.0393,0.0348,0.0359,0.037,0.0363,0.036,0.0447,0.0414,0.045,0.051,0.0536,0.0548,0.0558,0.0592,0.0604,0.0456,0.0456,0.0457,0,0.0503,0.0518,0.0475,0.0493,0.0492,0.0436,0.0465,0.0457,0.0442,0.0443,0.0415,0.0429,0.0415,0.0451,0.0473,0.0472,0.048,0.0453,0.0549,0.0559,0.0568,0.06,0.0612,0.0461,0.0461,0.046,0.046,0,0.0592,0.0603,0.0628,0.0615,0.0616,0.0639,0.0602,0.0608,0.0581,0.0559,0.0586,0.0567,0.0567,0.0573,0.0546,0.0606,0.0592,0.0557,0.0508,0.0587,0.0617,0.0628,0.0468,0.0466,0.0465,0.0464,0,0,0.0729,0.0692,0.0702,0.0697,0.0674,0.0683,0.0705,0.0704,0.0712,0.0704,0.0723,0.0734,0.0703,0.07,0.0672,0.0694,0.0768,0.0657,0.0656,0.0681,0.0837,0.0865,0.088,0.0745,0.0747,0.0749,0.0839,0,0.0814,0.0848,0.0811,0.0855,0.0866,0.0814,0.0833,0.0823,0.0804,0.0812,0.0791,0.0801,0.0757,0.0756,0.0775,0.0755,0.08,0.0748,0.0765,0.0767,0.0773,0.0895,0.0924,0.1011,0.085,0.0852,0.0853,0,0.0917,0.0913,0.0958,0.0934,0.0938,0.0956,0.0954,0.0961,0.0949,0.0934,0.0932,0.0898,0.0921,0.0871,0.0903,0.0869,0.0874,0.0866,0.0868,0.087,0.0817,0.0903,0.1037,0.1051,0.087,0.0869,0.0868,0,0.1016,0.1022,0.1051,0.1047,0.1019,0.1034,0.1023,0.1008,0.1011,0.1009,0.1011,0.1012,0.1014,0.1017,0.0985,0.0952,0.1022,0.097,0.1013,0.1014,0.1032,0.1032,0.1171,0.1031,0.1031,0.103,0.103,0,0.1116,0.1146,0.1095,0.1113,0.1146,0.1103,0.1138,0.1122,0.1109,0.1125,0.1079,0.1095,0.105,0.1062,0.1037,0.1069,0.107,0.106,0.1054,0.1066,0.1067,0.107,0.1065,0.1034,0.1033,0.1032,0.1032,0,0.1233,0.12,0.1228,0.1199,0.1193,0.1219,0.1195,0.1212,0.1189,0.121,0.1212,0.1178,0.119,0.1158,0.1165,0.1148,0.1196,0.1178,0.12,0.1196,0.1242,0.1239,0.139,0.1409,0.1254,0.1256,0.1257,0,0.13,0.1322,0.1296,0.1303,0.1294,0.1305,0.1308,0.1267,0.1272,0.1261,0.128,0.1287,0.1292,0.1313,0.1291,0.1296,0.128,0.1333,0.1281,0.1294,0.1285,0.1285,0.1289,0.1345,0.1346,0.1348,0.1349,0,0.1424,0.1407,0.1411,0.1412,0.1416,0.1414,0.1409,0.1418,0.1375,0.1383,0.1394,0.1397,0.1404,0.1414,0.1415,0.1406,0.1372,0.1365,0.1376,0.139,0.1403,0.14,0.1232,0.1363,0.1361,0.136,0.136,0.1359,0.152,0.1538,0.1523,0.1531,0.1523,0.152,0.1535,0.1515,0.1523,0.1525,0.1501,0.1518,0.1507,0.1505,0.1499,0.1514,0.149,0.1505,0.1509,0.1514,0.1524,0.1399,0.1513,0.1513,0.1512,0.1512,0.1512,0,0.1644,0.1632,0.1639,0.1634,0.1641,0.1606,0.16,0.1609,0.1624,0.1616,0.1621,0.1635,0.1645,0.1623,0.1629,0.1645,0.163,0.1649,0.1649,0.1648,0.1543,0.1534,0.1661,0.1661,0.1661,0.1661,0.1661,0.1661,0.1709,0.1739,0.1721,0.1747,0.1735,0.175,0.175,0.1748,0.1742,0.176,0.1767,0.1752,0.174,0.1746,0.1754,0.1747,0.1753,0.1778,0.1767,0.1669,0.1655,0.1641,0.1633,0.1779,0.1779,0.1871,0.1872,0.1873]},{"header":{"parameterUnit":"m.s-1","parameterCategory":1,"la1":30.2991,"la2":30.254,"lo1":-89.0895,"lo2":-89.0444,"dy":0.0017,"dx":0.0017,"nx":28,"ny":28,"refTime":"2023-10-20T21:00:00:Z","depth":0,"parameterNumber":3,"parameterNumberName":"V-component_of_WINDS"},"data":[0,0,0,0,0,0,0,0,0,0,0,0,0,0,0,0,0,0,0,0,0,0,0,0,0,0,0,0,0,0,0,0,0,0,0,0,0,0,0,0,0,0,0,0,0,0,0,0,0,0,0,0,0,0,0,0,0,0,-3.343,-3.3431,0,-3.3454,-3.3454,-3.3455,-3.3412,-3.3411,-3.3409,-3.3408,-3.3428,-3.3429,-3.3431,0,0,0,0,0,0,0,0,0,0,0,0,0,-3.3345,-3.3347,-3.343,-3.3431,-3.3431,-3.3454,-3.3454,-3.3455,-3.3412,-3.3411,-3.3409,-3.3407,-3.3427,-3.3429,-3.3431,0,0,0,0,0,0,0,0,0,0,0,0,0,-3.3376,-3.3347,-3.343,-3.3413,-3.3412,-3.3454,-3.3454,-3.3455,-3.3413,-3.3411,-3.3409,-3.3407,-3.3426,-3.3429,-3.3432,-3.3491,0,0,-3.344,-3.3441,0,0,0,0,0,0,0,0,-3.3375,-3.338,-3.3415,-3.3414,-3.3413,-3.3428,-3.3431,-3.3467,-3.3413,-3.3412,-3.3408,-3.3406,-3.3429,-3.3431,-3.344,-3.3492,-3.3493,-3.344,-3.3442,-3.3443,-3.3444,0,0,0,0,0,0,0,-3.3373,-3.3378,-3.344,-3.3416,-3.3414,-3.3402,-3.3405,-3.3438,-3.3432,-3.3412,-3.3409,-3.3413,-3.3428,-3.3438,-3.3441,-3.3493,-3.344,-3.3443,-3.3444,-3.3445,-3.3594,-3.3597,0,0,0,0,0,0,-3.3373,-3.3377,-3.3439,-3.344,-3.3388,-3.3406,-3.3408,-3.3425,-3.3432,-3.3431,-3.3415,-3.3411,-3.3434,-3.3437,-3.3441,-3.3511,-3.3443,-3.3446,-3.3447,-3.3592,-3.3595,-3.3597,0,0,0,0,0,0,-3.3371,-3.3379,-3.3438,-3.3408,-3.3414,-3.341,-3.3429,-3.3427,-3.3437,-3.3434,-3.3432,-3.3426,-3.3433,-3.3437,-3.3479,-3.3511,-3.3447,-3.3449,-3.3589,-3.3593,-3.3596,-3.3652,0,0,0,0,0,0,-3.3369,-3.3379,-3.3402,-3.3409,-3.3416,-3.3477,-3.3431,-3.3429,-3.3442,-3.3437,-3.3444,-3.3443,-3.3431,-3.3475,-3.3482,-3.3514,-3.3451,-3.3586,-3.3591,-3.3595,-3.3647,-3.3656,-3.3665,0,0,0,0,0,-3.3366,-3.3415,-3.3403,-3.3411,-3.3445,-3.3479,-3.3483,-3.347,-3.3445,-3.3468,-3.3466,-3.3442,-3.3507,-3.348,-3.3487,-3.352,-3.3584,-3.359,-3.3595,-3.3643,-3.3655,-3.3665,0,0,0,0,0,0,-3.341,-3.3416,-3.3402,-3.3455,-3.3467,-3.3472,-3.35,-3.3483,-3.3501,-3.3495,-3.3477,-3.3479,-3.3525,-3.3527,-3.3497,-3.3578,-3.3541,-3.3548,-3.3575,-3.3586,-3.3595,-3.3593,-3.3454,0,0,0,0,0,-3.3426,-3.3454,-3.3457,-3.3504,-3.3511,-3.3505,-3.3518,-3.3508,-3.3519,-3.3523,-3.3524,-3.3534,-3.3557,-3.3572,-3.3592,-3.3647,-3.3648,-3.3674,-3.3683,-3.369,-3.3696,-3.3725,-3.3737,-3.3615,-3.3615,-3.3614,0,0,-3.3459,-3.3466,-3.3484,-3.3513,-3.3521,-3.3549,-3.3509,-3.354,-3.3561,-3.3527,-3.3567,-3.3569,-3.3579,-3.3628,-3.365,-3.3631,-3.373,-3.3697,-3.3703,-3.3704,-3.3732,-3.3744,-3.3754,-3.3618,-3.3617,-3.3617,0,0,-3.3533,-3.3542,-3.3582,-3.3591,-3.3605,-3.3601,-3.361,-3.3618,-3.3618,-3.3659,-3.3635,-3.3658,-3.3697,-3.3706,-3.3715,-3.3795,-3.3775,-3.3803,-3.3849,-3.3878,-3.3888,-3.3896,-3.3925,-3.3935,-3.3808,-3.3809,-3.3809,0,-3.3572,-3.3616,-3.3604,-3.3638,-3.3651,-3.3625,-3.3664,-3.3673,-3.3692,-3.3701,-3.3681,-3.373,-3.3735,-3.3786,-3.3806,-3.3814,-3.3824,-3.3801,-3.3888,-3.3896,-3.3903,-3.393,-3.3941,-3.3812,-3.3812,-3.3811,-3.3811,0,-3.3662,-3.3693,-3.3723,-3.3745,-3.3761,-3.3798,-3.3791,-3.3809,-3.3798,-3.3796,-3.3838,-3.3843,-3.3864,-3.3876,-3.3864,-3.3926,-3.3914,-3.3891,-3.3853,-3.3919,-3.3944,-3.3954,-3.3817,-3.3815,-3.3814,-3.3814,0,0,-3.3763,-3.3779,-3.3791,-3.3801,-3.3815,-3.3837,-3.3873,-3.3896,-3.3912,-3.3926,-3.3955,-3.399,-3.3969,-3.398,-3.3969,-3.3995,-3.4058,-3.3968,-3.3968,-3.3985,-3.4126,-3.4143,-3.4155,-3.4045,-3.4047,-3.4048,-3.4125,0,-3.3837,-3.39,-3.3892,-3.3952,-3.398,-3.3956,-3.3987,-3.3998,-3.3998,-3.4021,-3.4019,-3.4045,-3.4015,-3.4022,-3.4046,-3.4045,-3.4086,-3.404,-3.407,-3.4072,-3.4068,-3.4168,-3.4186,-3.4258,-3.4135,-3.4136,-3.4138,0,-3.3931,-3.3952,-3.4015,-3.4027,-3.4038,-3.4066,-3.4087,-3.411,-3.4122,-3.412,-3.4134,-3.4118,-3.4153,-3.4116,-3.4163,-3.4132,-3.4144,-3.4146,-3.4148,-3.415,-3.4108,-3.4172,-3.428,-3.4291,-3.4153,-3.4152,-3.4151,0,-3.3998,-3.4041,-3.4085,-3.4094,-3.4108,-3.4129,-3.4135,-3.4146,-3.4161,-3.4179,-3.4188,-3.421,-3.4221,-3.4237,-3.4228,-3.4202,-3.4277,-3.4239,-3.4275,-3.4276,-3.4291,-3.429,-3.4403,-3.43,-3.43,-3.43,-3.43,0,-3.4081,-3.4121,-3.4116,-3.4143,-3.4187,-3.4177,-3.422,-3.4223,-3.4233,-3.426,-3.424,-3.4265,-3.4252,-3.4275,-3.4268,-3.4308,-3.4314,-3.4312,-3.431,-3.4314,-3.4314,-3.4321,-3.4315,-3.4303,-3.4302,-3.4302,-3.4301,0,-3.4162,-3.4161,-3.4207,-3.4218,-3.4222,-3.4254,-3.4262,-3.4287,-3.4286,-3.4319,-3.4327,-3.4324,-3.4351,-3.4345,-3.4373,-3.4368,-3.4419,-3.4411,-3.4416,-3.4413,-3.445,-3.4447,-3.457,-3.4586,-3.4474,-3.4475,-3.4476,0,-3.4215,-3.4245,-3.426,-3.4278,-3.4287,-3.4315,-3.4331,-3.4322,-3.4339,-3.4357,-3.438,-3.4406,-3.4426,-3.447,-3.447,-3.4492,-3.4483,-3.4525,-3.4486,-3.449,-3.4483,-3.4482,-3.4485,-3.4532,-3.4534,-3.4535,-3.4536,0,-3.4308,-3.4307,-3.4332,-3.4357,-3.4378,-3.4396,-3.4413,-3.4428,-3.4421,-3.4441,-3.447,-3.4486,-3.4517,-3.4542,-3.4563,-3.4568,-3.455,-3.4548,-3.4558,-3.4562,-3.4563,-3.4563,-3.4436,-3.4545,-3.4544,-3.4543,-3.4543,-3.4542,-3.4376,-3.4403,-3.4419,-3.4447,-3.446,-3.4477,-3.4501,-3.4504,-3.4529,-3.4555,-3.4548,-3.4581,-3.4593,-3.4619,-3.4627,-3.4652,-3.4636,-3.4649,-3.4653,-3.4656,-3.4661,-3.4561,-3.4655,-3.4655,-3.4655,-3.4655,-3.4655,0,-3.4468,-3.4478,-3.4505,-3.4531,-3.4554,-3.4538,-3.4556,-3.4576,-3.4606,-3.462,-3.4641,-3.4674,-3.47,-3.4703,-3.4726,-3.4746,-3.4738,-3.4752,-3.475,-3.4752,-3.4674,-3.4663,-3.4758,-3.4758,-3.4758,-3.4758,-3.4758,-3.4758,-3.4519,-3.4564,-3.4565,-3.4615,-3.4624,-3.4658,-3.467,-3.4685,-3.4696,-3.4735,-3.4757,-3.476,-3.477,-3.4794,-3.4817,-3.4817,-3.4826,-3.4843,-3.484,-3.4767,-3.4757,-3.4747,-3.4737,-3.4845,-3.4845,-3.4915,-3.4916,-3.4916]}]]